Regional Weather Roundup
Issued by NWS

Home | Current Version | Previous Version | Text Only | Print | Product List | Glossary On
Versions: 1 2 3 4 5 6 7 8 9 10 11 12 13 14 15 16 17 18 19 20 21 22 23 24 25 26 27 28 29 30 31 32 33 34 35 36 37 38 39 40 41 42 43 44 45 46 47 48 49 50
667
ASUS44 KLIX 261910
RWRLA
LOUISIANA WEATHER ROUNDUP
NATIONAL WEATHER SERVICE NEW ORLEANS LA
100 PM CST THU FEB 26 2015

NOTE: "FAIR" INDICATES FEW OR NO CLOUDS BELOW 12,000 FEET WITH NO
      SIGNIFICANT WEATHER AND/OR OBSTRUCTIONS TO VISIBILITY.
      SKY/WX - SKY CONDITION AND SIGNIFICANT WEATHER.
      TMP - AIR TEMPERATURE.    DP   - DEWPOINT TEMPERATURE.
      RH  - RELATIVE HUMIDITY.  PRES - PRESSURE.
      HX  - HEAT INDEX.         WCI  - WIND CHILL INDEX.

*  THESE STATIONS ARE NOT NWS OR FAA STATIONS AND ARE NOT UNDER
   NWS QUALITY CONTROL.

LAZ040-048-061>063-065-066-069-262000-
SOUTHEAST LOUISIANA

CITY           SKY/WX    TMP DP  RH WIND       PRES   REMARKS
N.O. AUDUBON     N/A     45  40  80 MISG        N/A
N.O. INTL ARPT CLOUDY    44  35  70 N14       30.09F
N.O. LAKEFRONT CLOUDY    47  35  63 N17       30.09F
SLIDELL        CLOUDY    43  35  73 N10G21    30.08F
BATON ROUGE    PTSUNNY   47  34  60 N10G17    30.11S
BOOTHVILLE     CLOUDY    44  37  76 N10G22    30.06F
BELLE CHASSE   CLOUDY    44  34  67 N10G18    30.08S
BOGALUSA*        N/A     44  35  70 NW13      30.11F
GALLIANO*      CLOUDY    48  38  70 NW16G24   30.07F
NEW ROADS*     FAIR      46  35  64 NW8       30.12F
GONZALES*      CLOUDY    45  37  72 N10       30.10S
HAMMOND*       CLOUDY    46  34  61 N10       30.12S
HOUMA*         NOT AVBL
PORT FOURCHON* NOT AVBL

$$

LAZ041-044-053-054-262000-
SOUTHWEST LOUISIANA

CITY           SKY/WX    TMP DP  RH WIND       PRES   REMARKS
LAKE CHARLES   SUNNY     50  35  56 N14G20    30.14S
LAFAYETTE      MOSUNNY   47  36  65 NE17G23   30.12F
PATTERSON      CLOUDY    45  36  70 N12G18    30.11S
SALT POINT       N/A     46  36  68 N12       30.09F
NEW IBERIA     PTSUNNY   49  36  61 N16G23    30.12F
CHENAULT AIRPK MOSUNNY   48  36  61 N8G16     30.13F

$$

LAZ027-028-262000-
CENTRAL LOUISIANA

CITY           SKY/WX    TMP DP  RH WIND       PRES   REMARKS
FORT POLK      SUNNY     48  34  58 N8        30.13F
ALEXANDRIA INT MOSUNNY   45  36  70 NW10      30.15F
ALEXANDRIA     MOSUNNY   48  34  58 VRB5      30.16S

$$

LAZ001-002-262000-
NORTHWEST LOUISIANA

CITY           SKY/WX    TMP DP  RH WIND       PRES   REMARKS
SHREVEPORT     CLOUDY    39  33  79 NW14G20   30.22R WCI  31
BARKSDALE AFB  CLOUDY    39  32  76 N12       30.21S WCI  32
DTN SHREVEPORT CLOUDY    38  31  76 N7        30.22S WCI  33

$$

LAZ014-016-262000-
NORTHEAST LOUISIANA

CITY           SKY/WX    TMP DP  RH WIND       PRES   REMARKS
MONROE         CLOUDY    40  35  83 N12       30.20R WCI  33
TALLULAH       PTSUNNY   40  32  73 NW7       30.18R

$$




USA.gov is the U.S. government's official web portal to all federal, state and local government web resources and services.